Year,Month,Day,Hour,Minute,Value (Times are PST for temperature in C)
2019,04,25,00,00,5.80
2019,04,25,00,01,5.70
2019,04,25,00,02,5.70
2019,04,25,00,03,5.60
2019,04,25,00,04,5.60
2019,04,25,00,05,5.60
2019,04,25,00,06,5.50
2019,04,25,00,07,5.50
2019,04,25,00,08,5.50
2019,04,25,00,09,5.50
2019,04,25,00,10,5.40
2019,04,25,00,11,5.40
2019,04,25,00,12,5.50
2019,04,25,00,13,5.40
2019,04,25,00,14,5.40
2019,04,25,00,15,5.40
2019,04,25,00,16,5.40
2019,04,25,00,17,5.40
2019,04,25,00,18,5.40
2019,04,25,00,19,5.40
2019,04,25,00,20,5.40
2019,04,25,00,21,5.40
2019,04,25,00,22,5.40
2019,04,25,00,23,5.30
2019,04,25,00,24,5.30
2019,04,25,00,25,5.30
2019,04,25,00,26,5.30
2019,04,25,00,27,5.30
2019,04,25,00,28,5.20
2019,04,25,00,29,5.20
2019,04,25,00,30,5.20
2019,04,25,00,31,5.20
2019,04,25,00,32,5.20
2019,04,25,00,33,5.20
2019,04,25,00,34,5.20
2019,04,25,00,35,5.30
2019,04,25,00,36,5.30
2019,04,25,00,37,5.30
2019,04,25,00,38,5.30
2019,04,25,00,39,5.30
2019,04,25,00,40,5.20
2019,04,25,00,41,5.20
2019,04,25,00,42,5.20
2019,04,25,00,43,5.10
2019,04,25,00,44,5.10
2019,04,25,00,45,5.10
2019,04,25,00,46,5.00
2019,04,25,00,47,5.00
2019,04,25,00,48,5.00
2019,04,25,00,49,5.00
2019,04,25,00,50,5.00
2019,04,25,00,51,5.00
2019,04,25,00,52,5.00
2019,04,25,00,53,5.00
2019,04,25,00,54,5.00
2019,04,25,00,55,4.90
2019,04,25,00,56,4.90
2019,04,25,00,57,4.90
2019,04,25,00,58,4.90
2019,04,25,00,59,4.90
2019,04,25,01,00,4.90
2019,04,25,01,01,4.90
2019,04,25,01,02,4.90
2019,04,25,01,03,4.80
2019,04,25,01,04,4.80
2019,04,25,01,05,4.80
2019,04,25,01,06,4.80
2019,04,25,01,07,4.80
2019,04,25,01,08,4.80
2019,04,25,01,09,4.80
2019,04,25,01,10,4.70
2019,04,25,01,11,4.70
2019,04,25,01,12,4.70
2019,04,25,01,13,4.70
2019,04,25,01,14,4.70
2019,04,25,01,15,4.70
2019,04,25,01,16,4.70
2019,04,25,01,17,4.70
2019,04,25,01,18,4.80
2019,04,25,01,19,4.80
2019,04,25,01,20,4.80
2019,04,25,01,21,4.90
2019,04,25,01,22,4.90
2019,04,25,01,23,4.90
2019,04,25,01,24,4.90
2019,04,25,01,25,4.90
2019,04,25,01,26,4.90
2019,04,25,01,27,5.00
2019,04,25,01,28,5.00
2019,04,25,01,29,5.00
2019,04,25,01,30,5.00
2019,04,25,01,31,5.00
2019,04,25,01,32,4.90
2019,04,25,01,33,4.90
2019,04,25,01,34,4.90
2019,04,25,01,35,4.80
2019,04,25,01,36,4.80
2019,04,25,01,37,4.80
2019,04,25,01,38,4.70
2019,04,25,01,39,4.70
2019,04,25,01,40,4.70
2019,04,25,01,41,4.60
2019,04,25,01,42,4.60
2019,04,25,01,43,4.60
2019,04,25,01,44,4.60
2019,04,25,01,45,4.50
2019,04,25,01,46,4.50
2019,04,25,01,47,4.40
2019,04,25,01,48,4.40
2019,04,25,01,49,4.40
2019,04,25,01,50,4.30
2019,04,25,01,51,4.30
2019,04,25,01,52,4.30
2019,04,25,01,53,4.30
2019,04,25,01,54,4.20
2019,04,25,01,55,4.20
2019,04,25,01,56,4.20
2019,04,25,01,57,4.20
2019,04,25,01,58,4.20
2019,04,25,01,59,4.20
2019,04,25,02,00,4.20
2019,04,25,02,01,4.20
2019,04,25,02,02,4.20
2019,04,25,02,03,4.20
2019,04,25,02,04,4.20
2019,04,25,02,05,4.10
2019,04,25,02,06,4.10
2019,04,25,02,07,4.10
2019,04,25,02,08,4.10
2019,04,25,02,09,4.10
2019,04,25,02,10,4.00
2019,04,25,02,11,4.00
2019,04,25,02,12,4.00
2019,04,25,02,13,4.00
2019,04,25,02,14,4.00
2019,04,25,02,15,4.00
2019,04,25,02,16,4.00
2019,04,25,02,17,3.90
2019,04,25,02,18,3.90
2019,04,25,02,19,3.80
2019,04,25,02,20,3.80
2019,04,25,02,21,3.80
2019,04,25,02,22,3.80
2019,04,25,02,23,3.80
2019,04,25,02,24,3.70
2019,04,25,02,25,3.70
2019,04,25,02,26,3.70
2019,04,25,02,27,3.70
2019,04,25,02,28,3.80
2019,04,25,02,29,3.80
2019,04,25,02,30,3.80
2019,04,25,02,31,3.80
2019,04,25,02,32,3.80
2019,04,25,02,33,3.80
2019,04,25,02,34,3.90
2019,04,25,02,35,3.90
2019,04,25,02,36,3.90
2019,04,25,02,37,3.90
2019,04,25,02,38,3.90
2019,04,25,02,39,3.90
2019,04,25,02,40,3.90
2019,04,25,02,41,3.80
2019,04,25,02,42,3.80
2019,04,25,02,43,3.80
2019,04,25,02,44,3.70
2019,04,25,02,45,3.70
2019,04,25,02,46,3.60
2019,04,25,02,47,3.60
2019,04,25,02,48,3.60
2019,04,25,02,49,3.60
2019,04,25,02,50,3.50
2019,04,25,02,51,3.50
2019,04,25,02,52,3.40
2019,04,25,02,53,3.40
2019,04,25,02,54,3.40
2019,04,25,02,55,3.40
2019,04,25,02,56,3.40
2019,04,25,02,57,3.40
2019,04,25,02,58,3.40
2019,04,25,02,59,3.40
2019,04,25,03,00,3.40
2019,04,25,03,01,3.30
2019,04,25,03,02,3.30
2019,04,25,03,03,3.30
2019,04,25,03,04,3.30
2019,04,25,03,05,3.30
2019,04,25,03,06,3.40
2019,04,25,03,07,3.40
2019,04,25,03,08,3.40
2019,04,25,03,09,3.40
2019,04,25,03,10,3.40
2019,04,25,03,11,3.40
2019,04,25,03,12,3.40
2019,04,25,03,13,3.40
2019,04,25,03,14,3.40
2019,04,25,03,15,3.50
2019,04,25,03,16,3.50
2019,04,25,03,17,3.50
2019,04,25,03,18,3.50
2019,04,25,03,19,3.40
2019,04,25,03,20,3.40
2019,04,25,03,21,3.40
2019,04,25,03,22,3.40
2019,04,25,03,23,3.30
2019,04,25,03,24,3.30
2019,04,25,03,25,3.30
2019,04,25,03,26,3.30
2019,04,25,03,27,3.30
2019,04,25,03,28,3.30
2019,04,25,03,29,3.30
2019,04,25,03,30,3.30
2019,04,25,03,31,3.30
2019,04,25,03,32,3.30
2019,04,25,03,33,3.30
2019,04,25,03,34,3.30
2019,04,25,03,35,3.30
2019,04,25,03,36,3.30
2019,04,25,03,37,3.30
2019,04,25,03,38,3.30
2019,04,25,03,39,3.30
2019,04,25,03,40,3.30
2019,04,25,03,41,3.30
2019,04,25,03,42,3.20
2019,04,25,03,43,3.20
2019,04,25,03,44,3.20
2019,04,25,03,45,3.20
2019,04,25,03,46,3.20
2019,04,25,03,47,3.20
2019,04,25,03,48,3.20
2019,04,25,03,49,3.20
2019,04,25,03,50,3.20
2019,04,25,03,51,3.20
2019,04,25,03,52,3.20
2019,04,25,03,53,3.20
2019,04,25,03,54,3.20
2019,04,25,03,55,3.20
2019,04,25,03,56,3.20
2019,04,25,03,57,3.10
2019,04,25,03,58,3.10
2019,04,25,03,59,3.10
2019,04,25,04,00,3.10
2019,04,25,04,01,3.10
2019,04,25,04,02,3.10
2019,04,25,04,03,3.10
2019,04,25,04,04,3.10
2019,04,25,04,05,3.10
2019,04,25,04,06,3.10
2019,04,25,04,07,3.10
2019,04,25,04,08,3.10
2019,04,25,04,09,3.00
2019,04,25,04,10,3.00
2019,04,25,04,11,3.00
2019,04,25,04,12,3.00
2019,04,25,04,13,3.00
2019,04,25,04,14,3.00
2019,04,25,04,15,2.90
2019,04,25,04,16,2.90
2019,04,25,04,17,2.90
2019,04,25,04,18,2.90
2019,04,25,04,19,2.90
2019,04,25,04,20,2.90
2019,04,25,04,21,2.90
2019,04,25,04,22,2.90
2019,04,25,04,23,2.90
2019,04,25,04,24,2.80
2019,04,25,04,25,2.80
2019,04,25,04,26,2.80
2019,04,25,04,27,2.80
2019,04,25,04,28,2.80
2019,04,25,04,29,2.70
2019,04,25,04,30,2.70
2019,04,25,04,31,2.60
2019,04,25,04,32,2.50
2019,04,25,04,33,2.50
2019,04,25,04,34,2.40
2019,04,25,04,35,2.40
2019,04,25,04,36,2.40
2019,04,25,04,37,2.40
2019,04,25,04,38,2.40
2019,04,25,04,39,2.40
2019,04,25,04,40,2.30
2019,04,25,04,41,2.30
2019,04,25,04,42,2.30
2019,04,25,04,43,2.30
2019,04,25,04,44,2.30
2019,04,25,04,45,2.30
2019,04,25,04,46,2.30
2019,04,25,04,47,2.20
2019,04,25,04,48,2.20
2019,04,25,04,49,2.20
2019,04,25,04,50,2.10
2019,04,25,04,51,2.00
2019,04,25,04,52,2.00
2019,04,25,04,53,1.90
2019,04,25,04,54,1.90
2019,04,25,04,55,1.90
2019,04,25,04,56,1.80
2019,04,25,04,57,1.80
2019,04,25,04,58,1.80
2019,04,25,04,59,1.80
2019,04,25,05,00,1.80
2019,04,25,05,01,1.80
2019,04,25,05,02,1.80
2019,04,25,05,03,1.80
2019,04,25,05,04,1.80
2019,04,25,05,05,1.80
2019,04,25,05,06,1.80
2019,04,25,05,07,1.90
2019,04,25,05,08,1.90
2019,04,25,05,09,1.90
2019,04,25,05,10,1.90
2019,04,25,05,11,1.90
2019,04,25,05,12,1.90
2019,04,25,05,13,1.90
2019,04,25,05,14,1.90
2019,04,25,05,15,1.80
2019,04,25,05,16,1.80
2019,04,25,05,17,1.80
2019,04,25,05,18,1.80
2019,04,25,05,19,1.80
2019,04,25,05,20,1.80
2019,04,25,05,21,1.80
2019,04,25,05,22,1.80
2019,04,25,05,23,1.80
2019,04,25,05,24,1.70
2019,04,25,05,25,1.70
2019,04,25,05,26,1.70
2019,04,25,05,27,1.70
2019,04,25,05,28,1.70
2019,04,25,05,29,1.70
2019,04,25,05,30,1.70
2019,04,25,05,31,1.70
2019,04,25,05,32,1.60
2019,04,25,05,33,1.60
2019,04,25,05,34,1.60
2019,04,25,05,35,1.60
2019,04,25,05,36,1.60
2019,04,25,05,37,1.60
2019,04,25,05,38,1.60
2019,04,25,05,39,1.60
2019,04,25,05,40,1.60
2019,04,25,05,41,1.60
2019,04,25,05,42,1.50
2019,04,25,05,43,1.50
2019,04,25,05,44,1.50
2019,04,25,05,45,1.50
2019,04,25,05,46,1.60
2019,04,25,05,47,1.60
2019,04,25,05,48,1.60
2019,04,25,05,49,1.60
2019,04,25,05,50,1.60
2019,04,25,05,51,1.60
2019,04,25,05,52,1.60
2019,04,25,05,53,1.60
2019,04,25,05,54,1.60
2019,04,25,05,55,1.60
2019,04,25,05,56,1.60
2019,04,25,05,57,1.60
2019,04,25,05,58,1.60
2019,04,25,05,59,1.60
2019,04,25,06,00,1.50
2019,04,25,06,01,1.50
2019,04,25,06,02,1.40
2019,04,25,06,03,1.40
2019,04,25,06,04,1.40
2019,04,25,06,05,1.40
2019,04,25,06,06,1.40
2019,04,25,06,07,1.30
2019,04,25,06,08,1.30
2019,04,25,06,09,1.30
2019,04,25,06,10,1.30
2019,04,25,06,11,1.30
2019,04,25,06,12,1.30
2019,04,25,06,13,1.30
2019,04,25,06,14,1.30
2019,04,25,06,15,1.30
2019,04,25,06,16,1.30
2019,04,25,06,17,1.30
2019,04,25,06,18,1.30
2019,04,25,06,19,1.20
2019,04,25,06,20,1.20
2019,04,25,06,21,1.20
2019,04,25,06,22,1.20
2019,04,25,06,23,1.20
2019,04,25,06,24,1.20
2019,04,25,06,25,1.20
2019,04,25,06,26,1.20
2019,04,25,06,27,1.20
2019,04,25,06,28,1.20
2019,04,25,06,29,1.20
2019,04,25,06,30,1.20
2019,04,25,06,31,1.20
2019,04,25,06,32,1.20
2019,04,25,06,33,1.20
2019,04,25,06,34,1.10
2019,04,25,06,35,1.10
2019,04,25,06,36,1.10
2019,04,25,06,37,1.20
2019,04,25,06,38,1.20
2019,04,25,06,39,1.10
2019,04,25,06,40,1.20
2019,04,25,06,41,1.20
2019,04,25,06,42,1.20
2019,04,25,06,43,1.20
2019,04,25,06,44,1.20
2019,04,25,06,45,1.20
2019,04,25,06,46,1.20
2019,04,25,06,47,1.20
2019,04,25,06,48,1.20
2019,04,25,06,49,1.20
2019,04,25,06,50,1.20
2019,04,25,06,51,1.20
2019,04,25,06,52,1.30
2019,04,25,06,53,1.30
2019,04,25,06,54,1.30
2019,04,25,06,55,1.30
2019,04,25,06,56,1.30
2019,04,25,06,57,1.30
2019,04,25,06,58,1.30
2019,04,25,06,59,1.40
2019,04,25,07,00,1.40
2019,04,25,07,01,1.50
2019,04,25,07,02,1.50
2019,04,25,07,03,1.60
2019,04,25,07,04,1.60
2019,04,25,07,05,1.70
2019,04,25,07,06,1.70
2019,04,25,07,07,1.70
2019,04,25,07,08,1.80
2019,04,25,07,09,1.80
2019,04,25,07,10,1.80
2019,04,25,07,11,1.90
2019,04,25,07,12,1.90
2019,04,25,07,13,1.90
2019,04,25,07,14,1.90
2019,04,25,07,15,2.00
2019,04,25,07,16,2.00
2019,04,25,07,17,2.00
2019,04,25,07,18,2.00
2019,04,25,07,19,2.00
2019,04,25,07,20,2.10
2019,04,25,07,21,2.10
2019,04,25,07,22,2.20
2019,04,25,07,23,2.20
2019,04,25,07,24,2.30
2019,04,25,07,25,2.30
2019,04,25,07,26,2.30
2019,04,25,07,27,2.40
2019,04,25,07,28,2.50
2019,04,25,07,29,2.50
2019,04,25,07,30,2.60
2019,04,25,07,31,2.70
2019,04,25,07,32,2.80
2019,04,25,07,33,2.90
2019,04,25,07,34,2.90
2019,04,25,07,35,3.00
2019,04,25,07,36,3.10
2019,04,25,07,37,3.20
2019,04,25,07,38,3.20
2019,04,25,07,39,3.30
2019,04,25,07,40,3.40
2019,04,25,07,41,3.50
2019,04,25,07,42,3.50
2019,04,25,07,43,3.60
2019,04,25,07,44,3.70
2019,04,25,07,45,3.80
2019,04,25,07,46,3.90
2019,04,25,07,47,4.00
2019,04,25,07,48,4.10
2019,04,25,07,49,4.20
2019,04,25,07,50,4.30
2019,04,25,07,51,4.40
2019,04,25,07,52,4.50
2019,04,25,07,53,4.50
2019,04,25,07,54,4.60
2019,04,25,07,55,4.70
2019,04,25,07,56,4.70
2019,04,25,07,57,4.80
2019,04,25,07,58,4.80
2019,04,25,07,59,4.90
2019,04,25,08,00,4.90
2019,04,25,08,01,5.00
2019,04,25,08,02,5.00
2019,04,25,08,03,5.10
2019,04,25,08,04,5.10
2019,04,25,08,05,5.10
2019,04,25,08,06,5.20
2019,04,25,08,07,5.20
2019,04,25,08,08,5.20
2019,04,25,08,09,5.30
2019,04,25,08,10,5.40
2019,04,25,08,11,5.50
2019,04,25,08,12,5.60
2019,04,25,08,13,5.60
2019,04,25,08,14,5.70
2019,04,25,08,15,5.80
2019,04,25,08,16,5.80
2019,04,25,08,17,5.90
2019,04,25,08,18,5.90
2019,04,25,08,19,6.00
2019,04,25,08,20,6.00
2019,04,25,08,21,6.10
2019,04,25,08,22,6.10
2019,04,25,08,23,6.10
2019,04,25,08,24,6.10
2019,04,25,08,25,6.10
2019,04,25,08,26,6.10
2019,04,25,08,27,6.10
2019,04,25,08,28,6.10
2019,04,25,08,29,6.10
2019,04,25,08,30,6.20
2019,04,25,08,31,6.20
2019,04,25,08,32,6.20
2019,04,25,08,33,6.20
2019,04,25,08,34,6.30
2019,04,25,08,35,6.30
2019,04,25,08,36,6.30
2019,04,25,08,37,6.40
2019,04,25,08,38,6.40
2019,04,25,08,39,6.50
2019,04,25,08,40,6.50
2019,04,25,08,41,6.60
2019,04,25,08,42,6.70
2019,04,25,08,43,6.70
2019,04,25,08,44,6.70
2019,04,25,08,45,6.70
2019,04,25,08,46,6.70
2019,04,25,08,47,6.70
2019,04,25,08,48,6.70
2019,04,25,08,49,6.70
2019,04,25,08,50,6.70
2019,04,25,08,51,6.70
2019,04,25,08,52,6.70
2019,04,25,08,53,6.80
2019,04,25,08,54,6.80
2019,04,25,08,55,6.90
2019,04,25,08,56,6.90
2019,04,25,08,57,7.00
2019,04,25,08,58,7.00
2019,04,25,08,59,7.00
2019,04,25,09,00,7.00
2019,04,25,09,01,7.10
2019,04,25,09,02,7.10
2019,04,25,09,03,7.10
2019,04,25,09,04,7.10
2019,04,25,09,05,7.20
2019,04,25,09,06,7.20
2019,04,25,09,07,7.30
2019,04,25,09,08,7.30
2019,04,25,09,09,7.40
2019,04,25,09,10,7.50
2019,04,25,09,11,7.60
2019,04,25,09,12,7.60
2019,04,25,09,13,7.70
2019,04,25,09,14,7.80
2019,04,25,09,15,7.90
2019,04,25,09,16,7.90
2019,04,25,09,17,8.00
2019,04,25,09,18,8.00
2019,04,25,09,19,8.10
2019,04,25,09,20,8.10
2019,04,25,09,21,8.10
2019,04,25,09,22,8.20
2019,04,25,09,23,8.20
2019,04,25,09,24,8.20
2019,04,25,09,25,8.20
2019,04,25,09,26,8.20
2019,04,25,09,27,8.30
2019,04,25,09,28,8.40
2019,04,25,09,29,8.40
2019,04,25,09,30,8.50
2019,04,25,09,31,8.60
2019,04,25,09,32,8.60
2019,04,25,09,33,8.60
2019,04,25,09,34,8.60
2019,04,25,09,35,8.60
2019,04,25,09,36,8.60
2019,04,25,09,37,8.60
2019,04,25,09,38,8.60
2019,04,25,09,39,8.70
2019,04,25,09,40,8.70
2019,04,25,09,41,8.80
2019,04,25,09,42,8.80
2019,04,25,09,43,8.80
2019,04,25,09,44,8.80
2019,04,25,09,45,8.80
2019,04,25,09,46,8.80
2019,04,25,09,47,8.80
2019,04,25,09,48,8.80
2019,04,25,09,49,8.80
2019,04,25,09,50,8.80
2019,04,25,09,51,8.90
2019,04,25,09,52,8.90
2019,04,25,09,53,9.00
2019,04,25,09,54,9.10
2019,04,25,09,55,9.10
2019,04,25,09,56,9.10
2019,04,25,09,57,9.10
2019,04,25,09,58,9.20
2019,04,25,09,59,9.20
2019,04,25,10,00,9.30
2019,04,25,10,01,9.40
2019,04,25,10,02,9.50
2019,04,25,10,03,9.50
2019,04,25,10,04,9.60
2019,04,25,10,05,9.60
2019,04,25,10,06,9.70
2019,04,25,10,07,9.70
2019,04,25,10,08,9.80
2019,04,25,10,09,9.80
2019,04,25,10,10,9.80
2019,04,25,10,11,9.80
2019,04,25,10,12,9.80
2019,04,25,10,13,9.90
2019,04,25,10,14,9.90
2019,04,25,10,15,9.90
2019,04,25,10,16,10.00
2019,04,25,10,17,10.00
2019,04,25,10,18,10.00
2019,04,25,10,19,10.10
2019,04,25,10,20,10.10
2019,04,25,10,21,10.10
2019,04,25,10,22,10.10
2019,04,25,10,23,10.20
2019,04,25,10,24,10.20
2019,04,25,10,25,10.30
2019,04,25,10,26,10.30
2019,04,25,10,27,10.40
2019,04,25,10,28,10.40
2019,04,25,10,29,10.50
2019,04,25,10,30,10.60
2019,04,25,10,31,10.70
2019,04,25,10,32,10.70
2019,04,25,10,33,10.80
2019,04,25,10,34,10.90
2019,04,25,10,35,10.90
2019,04,25,10,36,10.90
2019,04,25,10,37,10.90
2019,04,25,10,38,10.90
2019,04,25,10,39,11.00
2019,04,25,10,40,11.00
2019,04,25,10,41,11.10
2019,04,25,10,42,11.20
2019,04,25,10,43,11.20
2019,04,25,10,44,11.20
2019,04,25,10,45,11.30
2019,04,25,10,46,11.40
2019,04,25,10,47,11.50
2019,04,25,10,48,11.60
2019,04,25,10,49,11.70
2019,04,25,10,50,11.70
2019,04,25,10,51,11.70
2019,04,25,10,52,11.80
2019,04,25,10,53,11.80
2019,04,25,10,54,11.80
2019,04,25,10,55,11.80
2019,04,25,10,56,11.70
2019,04,25,10,57,11.60
2019,04,25,10,58,11.60
2019,04,25,10,59,11.60
2019,04,25,11,00,11.60
2019,04,25,11,01,11.60
2019,04,25,11,02,11.60
2019,04,25,11,03,11.70
2019,04,25,11,04,11.70
2019,04,25,11,05,11.80
2019,04,25,11,06,11.80
2019,04,25,11,07,11.90
2019,04,25,11,08,12.00
2019,04,25,11,09,12.10
2019,04,25,11,10,12.20
2019,04,25,11,11,12.30
2019,04,25,11,12,12.40
2019,04,25,11,13,12.40
2019,04,25,11,14,12.40
2019,04,25,11,15,12.40
2019,04,25,11,16,12.40
2019,04,25,11,17,12.40
2019,04,25,11,18,12.40
2019,04,25,11,19,12.40
2019,04,25,11,20,12.50
2019,04,25,11,21,12.50
2019,04,25,11,22,12.60
2019,04,25,11,23,12.60
2019,04,25,11,24,12.70
2019,04,25,11,25,12.80
2019,04,25,11,26,12.80
2019,04,25,11,27,12.80
2019,04,25,11,28,12.80
2019,04,25,11,29,12.70
2019,04,25,11,30,12.70
2019,04,25,11,31,12.70
2019,04,25,11,32,12.70
2019,04,25,11,33,12.70
2019,04,25,11,34,12.70
2019,04,25,11,35,12.70
2019,04,25,11,36,12.80
2019,04,25,11,37,12.80
2019,04,25,11,38,12.80
2019,04,25,11,39,12.90
2019,04,25,11,40,12.90
2019,04,25,11,41,13.00
2019,04,25,11,42,13.10
2019,04,25,11,43,13.20
2019,04,25,11,44,13.30
2019,04,25,11,45,13.30
2019,04,25,11,46,13.30
2019,04,25,11,47,13.30
2019,04,25,11,48,13.30
2019,04,25,11,49,13.20
2019,04,25,11,50,13.10
2019,04,25,11,51,13.10
2019,04,25,11,52,13.10
2019,04,25,11,53,13.10
2019,04,25,11,54,13.10
2019,04,25,11,55,13.10
2019,04,25,11,56,13.10
2019,04,25,11,57,13.20
2019,04,25,11,58,13.20
2019,04,25,11,59,13.20
2019,04,25,12,00,13.20
2019,04,25,12,01,13.20
2019,04,25,12,02,13.10
2019,04,25,12,03,13.10
2019,04,25,12,04,13.20
2019,04,25,12,05,13.20
2019,04,25,12,06,13.30
2019,04,25,12,07,13.40
2019,04,25,12,08,13.50
2019,04,25,12,09,13.60
2019,04,25,12,10,13.60
2019,04,25,12,11,13.60
2019,04,25,12,12,13.60
2019,04,25,12,13,13.60
2019,04,25,12,14,13.50
2019,04,25,12,15,13.50
2019,04,25,12,16,13.50
2019,04,25,12,17,13.40
2019,04,25,12,18,13.40
2019,04,25,12,19,13.40
2019,04,25,12,20,13.50
2019,04,25,12,21,13.50
2019,04,25,12,22,13.60
2019,04,25,12,23,13.60
2019,04,25,12,24,13.70
2019,04,25,12,25,13.80
2019,04,25,12,26,13.80
2019,04,25,12,27,13.90
2019,04,25,12,28,13.90
2019,04,25,12,29,14.00
2019,04,25,12,30,14.00
2019,04,25,12,31,14.10
2019,04,25,12,32,14.10
2019,04,25,12,33,14.10
2019,04,25,12,34,14.00
2019,04,25,12,35,14.00
2019,04,25,12,36,13.90
2019,04,25,12,37,13.90
2019,04,25,12,38,13.90
2019,04,25,12,39,13.90
2019,04,25,12,40,13.80
2019,04,25,12,41,13.80
2019,04,25,12,42,13.80
2019,04,25,12,43,13.80
2019,04,25,12,44,13.70
2019,04,25,12,45,13.60
2019,04,25,12,46,13.50
2019,04,25,12,47,13.50
2019,04,25,12,48,13.50
2019,04,25,12,49,13.50
2019,04,25,12,50,13.50
2019,04,25,12,51,13.50
2019,04,25,12,52,13.50
2019,04,25,12,53,13.60
2019,04,25,12,54,13.70
2019,04,25,12,55,13.70
2019,04,25,12,56,13.70
2019,04,25,12,57,13.80
2019,04,25,12,58,13.80
2019,04,25,12,59,13.80
2019,04,25,13,00,13.90
2019,04,25,13,01,14.00
2019,04,25,13,02,14.00
2019,04,25,13,03,14.10
2019,04,25,13,04,14.10
2019,04,25,13,05,14.10
2019,04,25,13,06,14.20
2019,04,25,13,07,14.20
2019,04,25,13,08,14.30
2019,04,25,13,09,14.30
2019,04,25,13,10,14.30
2019,04,25,13,11,14.30
2019,04,25,13,12,14.30
2019,04,25,13,13,14.30
2019,04,25,13,14,14.30
2019,04,25,13,15,14.30
2019,04,25,13,16,14.30
2019,04,25,13,17,14.30
2019,04,25,13,18,14.40
2019,04,25,13,19,14.40
2019,04,25,13,20,14.40
2019,04,25,13,21,14.40
2019,04,25,13,22,14.40
2019,04,25,13,23,14.30
2019,04,25,13,24,14.20
2019,04,25,13,25,14.20
2019,04,25,13,26,14.10
2019,04,25,13,27,14.00
2019,04,25,13,28,14.00
2019,04,25,13,29,14.00
2019,04,25,13,30,13.90
2019,04,25,13,31,13.90
2019,04,25,13,32,13.90
2019,04,25,13,33,13.90
2019,04,25,13,34,13.90
2019,04,25,13,35,13.90
2019,04,25,13,36,13.90
2019,04,25,13,37,13.90
2019,04,25,13,38,13.80
2019,04,25,13,39,13.80
2019,04,25,13,40,13.90
2019,04,25,13,41,14.00
2019,04,25,13,42,14.00
2019,04,25,13,43,14.10
2019,04,25,13,44,14.10
2019,04,25,13,45,14.20
2019,04,25,13,46,14.20
2019,04,25,13,47,14.20
2019,04,25,13,48,14.20
2019,04,25,13,49,14.10
2019,04,25,13,50,14.10
2019,04,25,13,51,14.10
2019,04,25,13,52,14.10
2019,04,25,13,53,14.10
2019,04,25,13,54,14.20
2019,04,25,13,55,14.20
2019,04,25,13,56,14.30
2019,04,25,13,57,14.30
2019,04,25,13,58,14.30
2019,04,25,13,59,14.30
2019,04,25,14,00,14.30
2019,04,25,14,01,14.30
2019,04,25,14,02,14.30
2019,04,25,14,03,14.30
2019,04,25,14,04,14.30
2019,04,25,14,05,14.40
2019,04,25,14,06,14.50
2019,04,25,14,07,14.50
2019,04,25,14,08,14.50
2019,04,25,14,09,14.50
2019,04,25,14,10,14.60
2019,04,25,14,11,14.70
2019,04,25,14,12,14.80
2019,04,25,14,13,14.80
2019,04,25,14,14,14.80
2019,04,25,14,15,14.90
2019,04,25,14,16,14.80
2019,04,25,14,17,14.80
2019,04,25,14,18,14.80
2019,04,25,14,19,14.80
2019,04,25,14,20,14.80
2019,04,25,14,21,14.80
2019,04,25,14,22,14.80
2019,04,25,14,23,14.80
2019,04,25,14,24,14.80
2019,04,25,14,25,14.80
2019,04,25,14,26,14.80
2019,04,25,14,27,14.80
2019,04,25,14,28,14.80
2019,04,25,14,29,14.80
2019,04,25,14,30,14.80
2019,04,25,14,31,14.80
2019,04,25,14,32,14.80
2019,04,25,14,33,14.90
2019,04,25,14,34,14.90
2019,04,25,14,35,14.90
2019,04,25,14,36,14.90
2019,04,25,14,37,14.90
2019,04,25,14,38,14.90
2019,04,25,14,39,14.90
2019,04,25,14,40,14.90
2019,04,25,14,41,14.90
2019,04,25,14,42,14.90
2019,04,25,14,43,14.90
2019,04,25,14,44,14.90
2019,04,25,14,45,14.90
2019,04,25,14,46,15.00
2019,04,25,14,47,15.00
2019,04,25,14,48,15.10
2019,04,25,14,49,15.20
2019,04,25,14,50,15.20
2019,04,25,14,51,15.20
2019,04,25,14,52,15.20
2019,04,25,14,53,15.30
2019,04,25,14,54,15.30
2019,04,25,14,55,15.20
2019,04,25,14,56,15.30
2019,04,25,14,57,15.30
2019,04,25,14,58,15.40
2019,04,25,14,59,15.40
2019,04,25,15,00,15.40
2019,04,25,15,01,15.40
2019,04,25,15,02,15.30
2019,04,25,15,03,15.30
2019,04,25,15,04,15.30
2019,04,25,15,05,15.30
2019,04,25,15,06,15.30
2019,04,25,15,07,15.40
2019,04,25,15,08,15.40
2019,04,25,15,09,15.50
2019,04,25,15,10,15.50
2019,04,25,15,11,15.60
2019,04,25,15,12,15.60
2019,04,25,15,13,15.60
2019,04,25,15,14,15.50
2019,04,25,15,15,15.40
2019,04,25,15,16,15.40
2019,04,25,15,17,15.40
2019,04,25,15,18,15.40
2019,04,25,15,19,15.40
2019,04,25,15,20,15.50
2019,04,25,15,21,15.50
2019,04,25,15,22,15.50
2019,04,25,15,23,15.50
2019,04,25,15,24,15.40
2019,04,25,15,25,15.30
2019,04,25,15,26,15.30
2019,04,25,15,27,15.30
2019,04,25,15,28,15.30
2019,04,25,15,29,15.30
2019,04,25,15,30,15.30
2019,04,25,15,31,15.30
2019,04,25,15,32,15.30
2019,04,25,15,33,15.30
2019,04,25,15,34,15.40
2019,04,25,15,35,15.40
2019,04,25,15,36,15.40
2019,04,25,15,37,15.50
2019,04,25,15,38,15.50
2019,04,25,15,39,15.60
2019,04,25,15,40,15.60
2019,04,25,15,41,15.60
2019,04,25,15,42,15.60
2019,04,25,15,43,15.60
2019,04,25,15,44,15.60
2019,04,25,15,45,15.60
2019,04,25,15,46,15.60
2019,04,25,15,47,15.70
2019,04,25,15,48,15.70
2019,04,25,15,49,15.60
2019,04,25,15,50,15.60
2019,04,25,15,51,15.60
2019,04,25,15,52,15.60
2019,04,25,15,53,15.60
2019,04,25,15,54,15.60
2019,04,25,15,55,15.60
2019,04,25,15,56,15.70
2019,04,25,15,57,15.70
2019,04,25,15,58,15.70
2019,04,25,15,59,15.60
2019,04,25,16,00,15.60
2019,04,25,16,01,15.60
2019,04,25,16,02,15.60
2019,04,25,16,03,15.70
2019,04,25,16,04,15.70
2019,04,25,16,05,15.70
2019,04,25,16,06,15.70
2019,04,25,16,07,15.70
2019,04,25,16,08,15.70
2019,04,25,16,09,15.70
2019,04,25,16,10,15.70
2019,04,25,16,11,15.60
2019,04,25,16,12,15.60
2019,04,25,16,13,15.60
2019,04,25,16,14,15.60
2019,04,25,16,15,15.50
2019,04,25,16,16,15.50
2019,04,25,16,17,15.40
2019,04,25,16,18,15.40
2019,04,25,16,19,15.40
2019,04,25,16,20,15.40
2019,04,25,16,21,15.40
2019,04,25,16,22,15.30
2019,04,25,16,23,15.30
2019,04,25,16,24,15.30
2019,04,25,16,25,15.30
2019,04,25,16,26,15.30
2019,04,25,16,27,15.40
2019,04,25,16,28,15.40
2019,04,25,16,29,15.40
2019,04,25,16,30,15.40
2019,04,25,16,31,15.40
2019,04,25,16,32,15.30
2019,04,25,16,33,15.30
2019,04,25,16,34,15.30
2019,04,25,16,35,15.30
2019,04,25,16,36,15.40
2019,04,25,16,37,15.40
2019,04,25,16,38,15.40
2019,04,25,16,39,15.40
2019,04,25,16,40,15.40
2019,04,25,16,41,15.40
2019,04,25,16,42,15.40
2019,04,25,16,43,15.40
2019,04,25,16,44,15.30
2019,04,25,16,45,15.30
2019,04,25,16,46,15.30
2019,04,25,16,47,15.30
2019,04,25,16,48,15.40
2019,04,25,16,49,15.40
2019,04,25,16,50,15.40
2019,04,25,16,51,15.40
2019,04,25,16,52,15.40
2019,04,25,16,53,15.40
2019,04,25,16,54,15.40
2019,04,25,16,55,15.40
2019,04,25,16,56,15.40
2019,04,25,16,57,15.40
2019,04,25,16,58,15.40
2019,04,25,16,59,15.40
2019,04,25,17,00,15.50
2019,04,25,17,01,15.50
2019,04,25,17,02,15.50
2019,04,25,17,03,15.50
2019,04,25,17,04,15.50
2019,04,25,17,05,15.50
2019,04,25,17,06,15.50
2019,04,25,17,07,15.50
2019,04,25,17,08,15.50
2019,04,25,17,09,15.50
2019,04,25,17,10,15.40
2019,04,25,17,11,15.40
2019,04,25,17,12,15.50
2019,04,25,17,13,15.50
2019,04,25,17,14,15.50
2019,04,25,17,15,15.50
2019,04,25,17,16,15.50
2019,04,25,17,17,15.50
2019,04,25,17,18,15.60
2019,04,25,17,19,15.60
2019,04,25,17,20,15.60
2019,04,25,17,21,15.60
2019,04,25,17,22,15.50
2019,04,25,17,23,15.50
2019,04,25,17,24,15.60
2019,04,25,17,25,15.60
2019,04,25,17,26,15.60
2019,04,25,17,27,15.60
2019,04,25,17,28,15.70
2019,04,25,17,29,15.70
2019,04,25,17,30,15.70
2019,04,25,17,31,15.70
2019,04,25,17,32,15.80
2019,04,25,17,33,15.70
2019,04,25,17,34,15.70
2019,04,25,17,35,15.70
2019,04,25,17,36,15.70
2019,04,25,17,37,15.80
2019,04,25,17,38,15.80
2019,04,25,17,39,15.80
2019,04,25,17,40,15.80
2019,04,25,17,41,15.80
2019,04,25,17,42,15.80
2019,04,25,17,43,15.80
2019,04,25,17,44,15.80
2019,04,25,17,45,15.80
2019,04,25,17,46,15.80